Showing default

OPS 8464 (TRANSIT 5B-7), 1514

Orbit data source: Space-Track

OPS 8464 (TRANSIT 5B-7), 1514 is a payload satellite owned by USN BuWeps (US) in LEO that was launched on Fri, 13 Aug 1965 UTC via a THOR ABLESTAR launch vehicle from the Air Force Western Test Range (AFWTR). Payload-class satellites include a variety of spacecraft equipped with specific instruments for various scientific and technological missions. These include communications satellites like Starlink; space stations such as the ISS; scientific satellites like the Hubble; Earth observation satellites from companies like Planet Labs, Umbra, and HawkEye 360; GPS; miniature CubeSats for education and research; and military/defense satellites.

Loading next visibility...
Identifier
1514, 1965-065F
Orbit
LEO
Last TLE update
10 hours ago
Origin
Manufacturer
NAFI
Mission
Defense Navigation
Bus & Motor
TRANSIT 5, Unknown motor
Mass
~54 kg wet, ~54 kg dry
Launch date (UTC)
1965-08-13 (60 years ago)
Launch vehicle
THOR ABLESTAR
Launch site
Air Force Western Test Range (AFWTR)
Object type
Payload
Rocket body
Debris
Shape & HBR
Oct Cyl + 4 Pan + 1 Rod, Unknown HBR
Radar Cross Section
7.565 m², Large (>1 m²)

Expand to show TLE details & history

TLE from 10 hours ago
0 OPS 8464 (TRANSIT 5B-7)
1 01514U 65065F   25189.85116519  .00000070  00000-0  11858-3 0  9997
2 01514  89.9709 228.3812 0071814  49.2721 123.3324 13.35303587915446
Epoch: 2025-07-08T20:25Z
TLE epoch observation values (Epoch: 2025-07-08T20:25:40.672Z)
Latitude
6.63665°
Longitude
174.91814°
Altitude
1,159.033 km
Speed
7.26 km/s
True Right ascension
03h 13m 30s
True Declination
6° 35' 58"
Sunlit
Object was in daylight at epoch
Visualization orbit readout
Latitude
59.50402°
Longitude
-5.03055°
Altitude
1,084.13 km
Speed
7.341 km/s
Apparent Right ascension
10h 04m 47s
Apparent Declination
29° 59' 20"
Sunlit
Object is in daylight
Visualization observer readout
Local Sidereal Time
18:48:29
Azimuth
318.797° NNW
Elevation
-6.572°
Doppler factor
1
Orbital elements
Apogee altitude
1,177.771 km
Perigee altitude
1,070.021 km
Semi-major axis
7,502.033 km
Eccentricity
0.00718
Inclination
89.9709°
RAAN
228.3812°
Arg. of periapsis
49.2721°
True anomaly
Unknown
Mean anomaly
123.3324°
Eccentric anomaly
Unknown
Mean motion
3.34022 °/min
Orbital period
107.78 mins
BSTAR
0.00011858
Loading maneuver chart data...
Loading SW <> Apogee altitude chart data...
Loading historical data...
Loading historical data...
Loading historical data...
Loading historical data...
Loading historical data...
Loading historical data...
Loading historical data...

OPS 8464 (TRANSIT 5B-7) Visibility forecast

Observer location: undefined°, undefined°

Span
Click to sort rows by Start time (UTC) header in descending order
Start Az.
Max El. time (UTC)
Max El. Az.
Max El.
End time (UTC)
End Az.
12 mins2025-07-09 14:09:07.555Z20.098° NNE2025-07-09 14:15:07.555Z94.483° ESE32.898°2025-07-09 14:21:07.555Z154.092° SSE
10 mins2025-07-09 15:58:07.555Z332.922° NNW2025-07-09 16:02:07.555Z283.241° WNW28.866°2025-07-09 16:08:07.555Z222.171° SW
10 mins2025-07-10 02:16:07.555Z143.069° SSE2025-07-10 02:20:07.555Z90.966° ESE35.002°2025-07-10 02:26:07.555Z12.685° NNE
9 mins2025-07-10 04:04:07.555Z228.585° WSW2025-07-10 04:08:07.555Z274.295° WNW25.106°2025-07-10 04:13:07.555Z330.669° NNW
|